Location: Moscow
(38.3171°N, 79.0889°W)
Time: 22:44:50
(UTC+00:00)

Cosmos 1725 Rocket - Pass Details

Date: 07 November 2025
Orbit: 961 x 989 km, 82.9° (Epoch: 14 December)

Event Time Altitude Azimuth Distance (km) Brightness Sun altitude
Rises 23:14:11 0° 189° (S) 3,647 7.3 -12.9°
Reaches altitude 10° 23:16:41 10° 191° (S) 2,707 6.6 -13.4°
Maximum altitude 23:22:53 77° 277° (W) 1,005 4.2 -14.6°
Drops below altitude 10° 23:29:11 10° 4° (N) 2,743 6.2 -15.8°
Sets 23:31:44 0° 6° (N) 3,699 6.9 -16.3°
